[[{"header":{"parameterUnit":"m.s-1","parameterCategory":1,"la1":30.2992,"la2":30.254,"lo1":-89.0895,"lo2":-89.0443,"dy":0.0025,"dx":0.0025,"nx":19,"ny":19,"refTime":"2026-05-10T03:00:00:Z","depth":0,"parameterNumber":2,"parameterNumberName":"U-component_of_WINDS"},"data":[0,0,0,-0.9809,-0.9807,-0.9724,-0.9723,-0.9633,-0.9632,0,0,0,0,0,0,0,0,0,0,0,-0.9841,-0.9841,-0.9809,-0.9807,-0.9724,-0.9723,-0.9633,-0.9632,0,0,0,0,0,0,0,0,0,0,0,-0.9842,-0.9841,-0.9841,-0.9807,-0.9724,-0.9723,-0.9633,-0.9691,0,0,0,0,0,0,0,0,0,0,-0.9769,-0.9807,-0.9841,-0.9841,-0.9806,-0.9724,-0.9723,-0.9693,-0.9687,-0.9677,0,-0.9669,0,-0.9649,-0.9627,-0.9627,0,0,0,-0.9801,-0.9812,-0.9782,-0.9841,-0.9805,-0.9724,-0.976,-0.969,-0.9683,-0.9669,-0.9667,-0.9664,-0.9648,-0.9627,-0.9626,-0.9584,-0.9584,0,0,-0.9806,-0.9831,-0.9787,-0.9778,-0.979,-0.9762,-0.9757,-0.9685,-0.9686,-0.9667,-0.9661,-0.9646,-0.9626,-0.9625,-0.9584,-0.9584,0,0,0,-0.9823,-0.9835,-0.9806,-0.9782,-0.9766,-0.976,-0.9754,-0.9689,-0.9677,-0.966,-0.9645,-0.9626,-0.9625,-0.9584,-0.9584,-0.9611,0,0,0,-0.9825,-0.9845,-0.9808,-0.9823,-0.9767,-0.9726,-0.976,-0.9682,-0.9673,-0.9646,-0.9626,-0.9624,-0.9583,-0.9584,-0.961,-0.9619,0,0,0,-0.9844,-0.9847,-0.9837,-0.9825,-0.979,-0.9727,-0.9711,-0.968,-0.9664,-0.9627,-0.9624,-0.9583,-0.9584,-0.9609,-0.9618,-0.9615,0,0,0,-0.9872,-0.9864,-0.9838,-0.9824,-0.9791,-0.9744,-0.9711,-0.9675,-0.9646,-0.9625,-0.9583,-0.9584,-0.9609,-0.9617,-0.9614,-0.9616,-0.9619,0,0,-0.9876,-0.9866,-0.9855,-0.9829,-0.9793,-0.9755,-0.9723,-0.9673,-0.9647,-0.9607,-0.9605,-0.961,-0.9618,-0.9615,-0.9632,-0.9634,0,0,0,-0.9865,-0.9857,-0.9842,-0.9815,-0.9776,-0.9743,-0.9695,-0.9676,-0.964,-0.9631,-0.9608,-0.9612,-0.9609,-0.9609,-0.9611,-0.9607,-0.9585,-0.9585,-0.9585,-0.9907,-0.9873,-0.9853,-0.9808,-0.9783,-0.9733,-0.9709,-0.9676,-0.965,-0.9645,-0.9633,-0.9647,-0.9648,-0.9649,-0.9645,-0.9632,-0.9632,-0.9632,-0.9632,-0.9909,-0.9893,-0.9858,-0.9825,-0.979,-0.9763,-0.9715,-0.9698,-0.9668,-0.9654,-0.9649,-0.9636,-0.9653,-0.9648,-0.9634,-0.9634,-0.9633,-0.9633,-0.9633,-0.9932,-0.9918,-0.9895,-0.9851,-0.9822,-0.9779,-0.9751,-0.9721,-0.9692,-0.9688,-0.9671,-0.967,-0.9665,-0.9682,-0.9682,-0.9682,-0.9682,-0.9682,-0.9682,-0.9965,-0.9937,-0.9917,-0.9875,-0.9853,-0.982,-0.9771,-0.9749,-0.9717,-0.9697,-0.9696,-0.9671,-0.9662,-0.9659,-0.9683,-0.9683,-0.9683,-0.9682,-0.9682,-0.9977,-0.9969,-0.9938,-0.9916,-0.9863,-0.9836,-0.9797,-0.9756,-0.9733,-0.9721,-0.9697,-0.9695,-0.9682,-0.968,-0.9678,-0.9704,-0.9704,-0.9704,-0.9704,-0.9996,-0.9986,-0.9946,-0.9913,-0.9877,-0.9839,-0.9806,-0.9768,-0.9727,-0.9711,-0.9704,-0.9698,-0.9698,-0.9685,-0.9683,-0.968,-0.9707,-0.9707,-0.9707,-1.0001,-0.9986,-0.9963,-0.9921,-0.9878,-0.9842,-0.981,-0.9774,-0.9727,-0.9706,-0.9698,-0.9698,-0.969,-0.9689,-0.9667,-0.9664,-0.9659,0,0]},{"header":{"parameterUnit":"m.s-1","parameterCategory":1,"la1":30.2992,"la2":30.254,"lo1":-89.0895,"lo2":-89.0443,"dy":0.0025,"dx":0.0025,"nx":19,"ny":19,"refTime":"2026-05-10T03:00:00:Z","depth":0,"parameterNumber":3,"parameterNumberName":"V-component_of_WINDS"},"data":[0,0,0,2.7005,2.7007,2.7103,2.7103,2.7215,2.7216,0,0,0,0,0,0,0,0,0,0,0,2.697,2.697,2.7005,2.7007,2.7103,2.7103,2.7215,2.7216,0,0,0,0,0,0,0,0,0,0,0,2.6969,2.697,2.6971,2.7007,2.7103,2.7104,2.7215,2.7146,0,0,0,0,0,0,0,0,0,0,2.7055,2.7015,2.697,2.6971,2.7008,2.7103,2.7104,2.7143,2.715,2.7167,0,2.718,0,2.72,2.7223,2.7223,0,0,0,2.7012,2.7009,2.7041,2.6971,2.7009,2.7103,2.7061,2.7147,2.7156,2.7176,2.7181,2.7186,2.7201,2.7223,2.7224,2.7304,2.7304,0,0,2.7006,2.6983,2.7036,2.7046,2.7031,2.7058,2.7064,2.7152,2.7156,2.7182,2.7189,2.7203,2.7224,2.7225,2.7304,2.7304,0,0,0,2.6988,2.6979,2.7009,2.7042,2.706,2.7061,2.7068,2.7152,2.7164,2.719,2.7205,2.7225,2.7226,2.7304,2.7304,2.729,0,0,0,2.6985,2.6968,2.7007,2.6993,2.7058,2.7107,2.7065,2.7158,2.7169,2.7204,2.7225,2.7227,2.7304,2.7304,2.729,2.7287,0,0,0,2.6966,2.6966,2.6978,2.6992,2.7033,2.7106,2.7123,2.7161,2.7177,2.7223,2.7227,2.7304,2.7304,2.729,2.7287,2.7303,0,0,0,2.6938,2.6962,2.6977,2.701,2.7032,2.7097,2.7123,2.7173,2.721,2.7225,2.7304,2.7304,2.729,2.7287,2.7303,2.7312,2.7314,0,0,2.6955,2.6963,2.6985,2.7001,2.7058,2.7084,2.7139,2.7195,2.722,2.7275,2.7277,2.729,2.7287,2.7303,2.7329,2.733,0,0,0,2.6982,2.6997,2.7018,2.7053,2.7097,2.7136,2.7186,2.7207,2.7255,2.7243,2.73,2.7299,2.7309,2.7315,2.7316,2.7327,2.7306,2.7306,2.7306,2.6972,2.7005,2.7043,2.7088,2.7122,2.7175,2.7206,2.7244,2.7265,2.7278,2.7295,2.7307,2.7313,2.7313,2.7324,2.7302,2.7302,2.7302,2.7302,2.7002,2.7029,2.7059,2.7107,2.7142,2.7183,2.7235,2.725,2.7293,2.7296,2.7307,2.7308,2.7314,2.7325,2.7301,2.7301,2.7301,2.7301,2.7301,2.6999,2.7018,2.7045,2.7101,2.7141,2.7186,2.7227,2.7257,2.7284,2.7295,2.7317,2.7317,2.7322,2.7303,2.7303,2.7303,2.7303,2.7303,2.7303,2.6986,2.7017,2.7048,2.71,2.7128,2.7168,2.7224,2.7252,2.7291,2.731,2.731,2.7331,2.7308,2.7302,2.7304,2.7304,2.7304,2.7304,2.7304,2.7005,2.7006,2.7054,2.7083,2.7147,2.7186,2.7224,2.728,2.7308,2.7327,2.7347,2.7325,2.7335,2.7334,2.733,2.7339,2.7339,2.7339,2.7339,2.7003,2.7012,2.707,2.7113,2.716,2.72,2.7255,2.7299,2.7345,2.7364,2.7367,2.7364,2.7362,2.7373,2.7372,2.7368,2.7387,2.7387,2.7387,2.7017,2.7032,2.7073,2.7119,2.7172,2.7217,2.727,2.732,2.7371,2.7389,2.7381,2.7379,2.7373,2.7369,2.7386,2.7384,2.7377,0,0]}]]